CW1334 Weather Reports


time (UTC)temp
C
wind
direction
speed
KPH
gust
KPH
rain 1hr
cm
rain 24hr
cm
rain mn
cm
humidity
%
barometer
mb
20260906231603 17 304 8.0 14.5 0.00 0.25 0.00 77 1015.1
20260906230107 17 302 9.7 19.3 0.00 0.25 0.00 78 1015.3
20260906224604 17 302 6.4 12.9 0.00 0.25 0.00 77 1015.4
20260906223101 17 330 3.2 9.7 0.00 0.25 0.00 77 1015.6
20260906221605 17 16 6.4 16.1 0.00 0.25 0.00 78 1015.6
20260906220104 17 40 9.7 16.1 0.00 0.25 0.00 78 1015.6
20260906214602 17 12 12.9 19.3 0.00 0.25 0.00 78 1015.6
20260906213100 17 41 11.3 17.7 0.00 0.25 0.00 78 1015.5
20260906211608 17 12 8.0 19.3 0.00 0.25 0.00 77 1015.5
20260906210109 17 32 12.9 20.9 0.00 0.25 0.00 76 1015.5
20260906204600 17 34 8.0 17.7 0.00 0.25 0.00 77 1015.5
20260906203105 17 30 9.7 19.3 0.00 0.25 0.00 77 1015.5
20260906201605 16 36 8.0 17.7 0.00 0.25 0.00 77 1015.7
20260906200111 16 24 9.7 17.7 0.00 0.25 0.00 76 1015.9
20260906194604 16 38 6.4 19.3 0.00 0.25 0.00 75 1015.9
20260906193056 16 21 12.9 24.1 0.00 0.25 0.00 76 1015.8
20260906191604 16 17 16.1 25.7 0.00 0.25 0.00 75 1015.8
20260906190109 16 60 14.5 32.2 0.00 0.25 0.00 73 1016.0
20260906184626 16 31 19.3 29.0 0.00 0.25 0.00 74 1016.0
20260906183100 16 60 8.0 27.4 0.00 0.25 0.00 76 1016.1
20260906181603 16 19 12.9 24.1 0.00 0.25 0.00 80 1015.9
20260906174603 13 67 11.3 19.3 0.00 0.25 0.00 91 1016.4
20260906173110 13 259 3.2 9.7 0.00 0.25 0.00 91 1017.9
20260906171608 13 344 1.6 6.4 0.00 0.25 0.00 92 1018.2
20260906170100 13 0 0.0 3.2 0.00 0.25 0.00 92 1018.0
20260906164601 13 0 0.0 3.2 0.00 0.25 0.00 92 1018.0
20260906163104 13 0 0.0 3.2 0.00 0.25 0.00 92 1018.1
20260906161556 13 0 0.0 8.0 0.00 0.25 0.00 92 1017.7
20260906160057 12 348 1.6 12.9 0.00 0.25 0.00 92 1018.0
20260906154603 12 304 4.8 14.5 0.00 0.25 0.00 91 1018.2
20260906153057 12 346 11.3 20.9 0.00 0.25 0.00 90 1018.6
20260906151558 12 278 19.3 29.0 0.00 0.25 0.00 88 1018.5
20260906150107 12 309 12.9 27.4 0.00 0.25 0.00 88 1018.8
20260906144602 13 292 22.5 33.8 0.00 0.25 0.00 85 1019.0
20260906143059 14 350 4.8 9.7 0.00 0.25 0.00 88 1018.6
20260906141600 14 40 9.7 16.1 0.00 0.25 0.00 88 1018.2
20260906140116 14 34 4.8 11.3 0.00 0.25 0.00 87 1018.3
20260906134622 14 41 4.8 14.5 0.00 0.36 0.00 88 1018.2
20260906133100 13 55 9.7 16.1 0.00 0.36 0.00 89 1017.9
20260906131557 13 355 4.8 11.3 0.00 0.36 0.00 90 1018.0
20260906130147 13 47 6.4 16.1 0.00 0.36 0.00 90 1018.1
20260906124609 13 61 8.0 19.3 0.00 0.36 0.00 90 1018.3
20260906123102 13 62 8.0 17.7 0.00 0.36 0.00 91 1018.3
20260906121609 13 25 8.0 17.7 0.00 0.36 0.00 90 1018.0
20260906120111 13 9 14.5 22.5 0.00 0.36 0.00 90 1018.2
20260906114602 13 22 9.7 19.3 0.00 0.36 0.00 89 1018.4
20260906113100 13 10 9.7 22.5 0.00 0.36 0.00 89 1018.2
20260906111555 13 65 14.5 24.1 0.00 0.36 0.00 88 1018.3
20260906110100 13 23 12.9 25.7 0.00 0.36 0.00 88 1018.3
20260906104558 13 352 9.7 22.5 0.00 0.36 0.00 87 1018.5
20260906103100 13 11 9.7 22.5 0.00 0.36 0.00 87 1018.5
20260906101604 13 36 12.9 24.1 0.00 0.36 0.00 87 1018.4
20260906100059 13 34 16.1 30.6 0.00 0.36 0.00 88 1018.5
20260906094558 13 17 19.3 29.0 0.00 0.36 0.00 86 1018.5
20260906093059 13 9 9.7 25.7 0.00 0.36 0.00 86 1018.6
20260906091556 14 332 14.5 30.6 0.00 0.36 0.00 85 1018.7
20260906090104 14 348 14.5 32.2 0.00 0.36 0.00 85 1018.8
20260906084559 13 307 16.1 24.1 0.00 0.36 0.00 86 1019.4
20260906083105 13 5 9.7 20.9 0.00 0.36 0.00 87 1019.4
20260906081558 13 322 6.4 14.5 0.00 0.36 0.00 87 1019.3
20260906080106 13 319 6.4 20.9 0.00 0.36 0.00 87 1019.1
20260906074559 13 344 8.0 20.9 0.00 0.36 0.00 86 1019.1
20260906073059 13 15 8.0 16.1 0.00 0.36 0.00 86 1019.2
20260906071556 14 348 12.9 27.4 0.00 0.36 0.00 85 1019.2
20260906064559 14 355 6.4 20.9 0.00 0.36 0.00 85 1020.0
20260906063058 14 355 12.9 33.8 0.00 0.36 0.00 85 1020.0
20260906061626 14 11 19.3 29.0 0.00 0.36 0.00 85 1019.7
20260906060123 13 346 14.5 27.4 0.00 0.36 0.00 85 1020.0
20260906054606 13 360 12.9 29.0 0.03 0.36 0.36 85 1020.0
20260906053104 13 38 12.9 33.8 0.03 0.36 0.36 84 1019.5
20260906051609 13 275 17.7 27.4 0.03 0.36 0.36 83 1019.6
20260906044559 14 360 17.7 29.0 0.00 0.33 0.33 81 1019.4
20260906043107 14 355 19.3 35.4 0.03 0.33 0.33 81 1019.4
20260906041605 13 19 20.9 37.0 0.23 0.33 0.33 82 1018.8
20260906040106 14 18 22.5 38.6 0.23 0.33 0.33 82 1018.8
20260906034605 14 20 20.9 33.8 0.23 0.33 0.33 81 1019.1
20260906033058 15 15 12.9 27.4 0.20 0.30 0.30 78 1019.5
20260906031604 16 323 14.5 25.7 0.00 0.10 0.10 68 1020.0
20260906030100 15 38 17.7 30.6 0.00 0.10 0.10 69 1018.5
20260906024559 16 346 17.7 29.0 0.00 0.10 0.10 68 1018.1
20260906023109 16 5 16.1 35.4 0.00 0.10 0.10 68 1017.9
20260906021558 16 32 20.9 37.0 0.00 0.10 0.10 66 1017.7
20260906020057 16 27 19.3 30.6 0.00 0.10 0.10 65 1017.8
20260906014607 17 9 17.7 32.2 0.00 0.10 0.10 63 1017.8
20260906013100 17 69 14.5 24.1 0.00 0.10 0.10 60 1017.8
20260906011606 18 28 14.5 25.7 0.00 0.10 0.10 57 1017.6
20260906010059 18 65 14.5 22.5 0.00 0.10 0.10 57 1017.7
20260906004604 19 355 16.1 25.7 0.00 0.10 0.10 56 1017.9
20260906003101 20 5 14.5 27.4 0.00 0.10 0.10 53 1017.9
20260906001559 20 95 19.3 27.4 0.00 0.10 0.10 53 1017.9
20260906000058 20 52 16.1 25.7 0.00 0.10 0.10 51 1017.9
20260905234606 21 15 12.9 20.9 0.00 0.10 0.10 47 1018.1
20260905233116 22 19 6.4 17.7 0.00 0.10 0.10 45 1018.0